This is the latest recevied weather packets stored in our database for station/object SP2FH-13. If no packets are shown the sender has not sent any weather packets the latest 10 day(s).
| Time | Temp. | Humidity | Pressure | Rain* | Wind** | Luminosity | Snow |
|---|---|---|---|---|---|---|---|
| 1778420002 | 18.89° C | 36% | 1003 hPa | - | - | 544 W/m² | - |
| 1778419701 | 18.33° C | 37% | 1003.1 hPa | - | - | 554 W/m² | - |
| 1778419401 | 18.89° C | 37% | 1003.1 hPa | - | - | 569 W/m² | - |
| 1778419099 | 18.89° C | 36% | 1003.1 hPa | - | - | 585 W/m² | - |
| 1778418798 | 19.44° C | 35% | 1003.1 hPa | - | - | 594 W/m² | - |
| 1778418497 | 18.89° C | 38% | 1003.1 hPa | - | - | 604 W/m² | - |
| 1778418195 | 18.89° C | 36% | 1003.2 hPa | - | - | 612 W/m² | - |
| 1778417894 | 18.89° C | 37% | 1003.4 hPa | - | - | 617 W/m² | - |
| 1778417593 | 19.44° C | 37% | 1003.4 hPa | - | - | 632 W/m² | - |
| 1778417292 | 18.89° C | 35% | 1003.5 hPa | - | - | 642 W/m² | - |
| 1778416992 | 19.44° C | 37% | 1003.5 hPa | - | - | 657 W/m² | - |
| 1778416690 | 18.89° C | 37% | 1003.5 hPa | - | - | 663 W/m² | - |
| 1778416389 | 18.33° C | 37% | 1003.6 hPa | - | - | 665 W/m² | - |
| 1778416088 | 18.89° C | 37% | 1003.7 hPa | - | - | 679 W/m² | - |
| 1778415787 | 18.89° C | 38% | 1003.8 hPa | - | - | 688 W/m² | - |
| 1778415486 | 18.89° C | 35% | 1003.9 hPa | - | - | 695 W/m² | - |
| 1778415185 | 19.44° C | 37% | 1004 hPa | - | - | 700 W/m² | - |
| 1778414884 | 19.44° C | 36% | 1004.1 hPa | - | - | 707 W/m² | - |
| 1778414583 | 18.89° C | 37% | 1004.1 hPa | - | - | 713 W/m² | - |
| 1778414282 | 19.44° C | 36% | 1004.2 hPa | - | - | 722 W/m² | - |
| 1778413981 | 18.89° C | 40% | 1004.2 hPa | - | - | 731 W/m² | - |
| 1778413680 | 18.33° C | 35% | 1004.3 hPa | - | - | 736 W/m² | - |
| 1778413379 | 18.33° C | 37% | 1004.4 hPa | - | - | 738 W/m² | - |
| 1778413078 | 17.78° C | 36% | 1004.5 hPa | - | - | 744 W/m² | - |
| 1778412776 | 18.33° C | 38% | 1004.6 hPa | - | - | 750 W/m² | - |
* Rain since midnight (hover to see other rain measurements)
** Current wind speed in m/s (hover to see current wind gust speed)